Location: Caltech
(34.1382°N, 118.1253°W)
Time: 09:04:27
(UTC-08:00)

Gbstr 26 Del rocket - Visible Passes

Search period start: 11 December 2017 00:00
Search period end: 21 December 2017 00:00
Orbit: 494 x 1265 km, 51.8° (Epoch: 10 December)

Date Brightness Start Highest point End Pass type
(mag) Time Alt. Az. Time Alt. Az. Time Alt. Az.
11 Dec 4.9 17:48:59 10° SSW 17:56:30 43° SE 18:00:59 22° ENE visible
11 Dec 4.8 19:36:15 10° WSW 19:43:34 53° NW 19:43:34 53° NW visible
12 Dec 4.7 17:44:10 10° SSW 17:51:58 53° SE 17:57:11 20° ENE visible
12 Dec 5.0 19:32:03 10° WSW 19:39:33 46° NW 19:39:46 46° NNW visible
13 Dec 4.6 17:39:27 10° SSW 17:47:28 64° SE 17:53:18 17° NE visible
13 Dec 5.1 19:27:54 10° W 19:35:12 40° NNW 19:35:53 39° NNW visible
14 Dec 4.5 17:34:50 10° SW 17:42:58 77° SE 17:49:22 15° NE visible
14 Dec 5.3 19:23:50 10° W 19:30:53 35° NNW 19:31:56 33° NNW visible
15 Dec 4.5 17:30:19 10° SW 17:38:29 90° NNW 17:45:22 13° NE visible
15 Dec 5.5 19:19:49 10° W 19:26:36 31° NNW 19:27:56 29° N visible
16 Dec 4.6 17:25:52 10° SW 17:34:02 77° NW 17:41:19 11° NE visible
16 Dec 5.6 19:15:50 10° W 19:22:20 28° NNW 19:23:53 26° N visible
17 Dec 4.8 17:21:31 10° WSW 17:29:36 66° NW 17:37:01 10° NE visible
17 Dec 5.7 19:11:54 10° WNW 19:18:06 25° NNW 19:19:47 23° N visible
18 Dec 5.0 17:17:13 10° WSW 17:25:11 57° NW 17:32:31 10° NE visible
18 Dec 5.8 19:07:58 10° WNW 19:13:55 23° NNW 19:15:39 21° N visible
19 Dec 5.2 17:13:00 10° WSW 17:20:49 49° NW 17:28:02 10° NE visible
19 Dec 5.8 19:04:03 10° WNW 19:09:44 21° NNW 19:11:29 20° N visible
20 Dec 5.3 17:08:51 10° WSW 17:16:28 43° NNW 17:23:32 10° NE visible
20 Dec 5.8 19:00:08 10° WNW 19:05:36 20° NNW 19:07:18 19° N visible
